(187041) = 2005 JS127

Discovered at Socorro on 2005-05-12 by LINEAR.

Orbit

Orbit type: Mars-crosser

Note: WebGL enabled browser required.

epoch2024-03-31.0
epoch JD2460400.5
perihelion date2021-03-04.84781
perihelion JD2459278.34781
argument of perihelion (°)113.48123
ascending node (°)186.40093
inclination (°)4.30793
eccentricity0.2450626
perihelion distance (AU)1.6025538
Tisserand w.r.t. Jupiter3.7
ΔV w.r.t. Earth (km/sec)7.8
semimajor axis (AU)2.1227638
mean anomaly (°)357.60460
mean daily motion (°/day)0.31867750
aphelion distance (AU)2.643
period (years)3.09
P-vector [x]0.49792892
P-vector [y]-0.82054732
P-vector [z]-0.28065794
Q-vector [x]0.86717741
Q-vector [y]0.46798505
Q-vector [z]0.17027429
absolute magnitude17.46
phase slope0.15
uncertainty0
referenceMPEC 2024-C181
observations used479
oppositions13
arc length (days)9683
first opposition used1996
last opposition used2023
residual rms (arc-secs)0.77
perturbers coarse indicatorM-v
perturbers precise indicator003Ek
first observation date used1996-09-13.0
last observation date used2023-03-19.0
computer nameMPCLINUX
JD of orbit computation2456937.263827
perihelion JD uncertainty (days)3.5030E-04
argument of perihelion uncertainty (°)8.6744E-05
ascending node uncertainty (°)4.4349E-05
inclination uncertainty (°)6.1388E-06
eccentricity uncertainty 2.0830E-07
perihelion distance uncertainty (AU)4.8212E-07
Minimum Orbit Intersection Distances (in AU)
for orbit epoch: 2460400.5, reference: E2024-CI1
Mercury1.16602
Venus0.88241
Earth0.59329
Mars0.23963
Jupiter2.58778
Saturn6.44706
Uranus15.912
Neptune27.4557

Observations

500 total observations over interval: 1996 09 13.37526 – 2023 03 19.275372
These data are available for download (format description).

Date (UT) J2000 RA J2000 Dec Magn Location Ref
1996 09 13.37526 23 24 08.70 -00 51 58.2 18.9 V 566 – Haleakala-NEAT/GEODSS MPS 137086
1996 09 13.38375 23 24 08.19 -00 52 03.4 18.8 V 566 – Haleakala-NEAT/GEODSS MPS 137086
1996 09 13.39450 23 24 07.67 -00 52 10.0 18.7 V 566 – Haleakala-NEAT/GEODSS MPS 137086
1999 08 13.27304 20 57 07.91 -08 18 30.7 18.2 R 699 – Lowell Observatory-LONEOS MPS 135984
1999 08 13.28576 20 57 07.44 -08 18 36.9   699 – Lowell Observatory-LONEOS MPS 135984
1999 08 13.29851 20 57 06.88 -08 18 43.8   699 – Lowell Observatory-LONEOS MPS 135984
1999 09 07.22341 20 50 51.38 -11 35 35.1 18.6   704 – Lincoln Laboratory ETS, New Mexico MPS 135984
1999 09 07.24857 20 50 51.51 -11 35 44.2 19.2   704 – Lincoln Laboratory ETS, New Mexico MPS 135984
1999 09 07.26111 20 50 51.61 -11 35 49.4 19.4   704 – Lincoln Laboratory ETS, New Mexico MPS 135984
1999 09 07.27348 20 50 51.62 -11 35 54.7 19.7   704 – Lincoln Laboratory ETS, New Mexico MPS 135984
1999 10 06.10774 21 10 10.54 -13 18 46.4 19.2   704 – Lincoln Laboratory ETS, New Mexico MPS 135984
1999 10 06.12086 21 10 11.36 -13 18 46.2 20.0   704 – Lincoln Laboratory ETS, New Mexico MPS 135984
1999 10 06.13431 21 10 12.22 -13 18 47.3 19.9   704 – Lincoln Laboratory ETS, New Mexico MPS 135984
1999 10 06.16055 21 10 13.92 -13 18 48.1 19.8   704 – Lincoln Laboratory ETS, New Mexico MPS 135984
2002 07 09.25681 18 03 55.32 -12 14 45.8 19.0   704 – Lincoln Laboratory ETS, New Mexico MPS 137086
2002 07 09.26940 18 03 54.79 -12 14 47.1 18.5   704 – Lincoln Laboratory ETS, New Mexico MPS 137086
2002 07 09.28222 18 03 54.23 -12 14 48.5 18.5   704 – Lincoln Laboratory ETS, New Mexico MPS 137086
2002 07 09.29500 18 03 53.72 -12 14 50.6 18.6   704 – Lincoln Laboratory ETS, New Mexico MPS 137086
2005 05 03.39782 16 13 37.66 -14 24 52.5 18.9   704 – Lincoln Laboratory ETS, New Mexico MPS 135396
2005 05 03.39837 16 13 37.70 -14 24 51.3 19.1 R 703 – Catalina Sky Survey MPS 135396
2005 05 03.40647 16 13 37.37 -14 24 45.9 19.1 R 703 – Catalina Sky Survey MPS 135396
2005 05 03.41019 16 13 37.17 -14 24 45.1 19.5   704 – Lincoln Laboratory ETS, New Mexico MPS 135396
2005 05 03.41457 16 13 37.04 -14 24 42.4 19.2 R 703 – Catalina Sky Survey MPS 135396
2005 05 03.42129 16 13 36.87 -14 24 41.7 18.8   704 – Lincoln Laboratory ETS, New Mexico MPS 135396
2005 05 03.43201 16 13 36.47 -14 24 38.4 19.4   704 – Lincoln Laboratory ETS, New Mexico MPS 135396
2005 05 08.31733 16 10 34.11 -13 50 54.9 18.9   704 – Lincoln Laboratory ETS, New Mexico MPS 135396
2005 05 08.32899 16 10 33.56 -13 50 50.6 19.3   704 – Lincoln Laboratory ETS, New Mexico MPS 135396
2005 05 08.35334 16 10 32.38 -13 50 40.2 19.4   704 – Lincoln Laboratory ETS, New Mexico MPS 135396
2005 05 08.36436 16 10 31.95 -13 50 35.8 19.1   704 – Lincoln Laboratory ETS, New Mexico MPS 135396
2005 05 12.33007 16 07 33.26 -13 22 40.4 18.5   704 – Lincoln Laboratory ETS, New Mexico MPS 134993
2005 05 12.34461 16 07 32.50 -13 22 33.6 18.6   704 – Lincoln Laboratory ETS, New Mexico MPS 134993
2005 05 12.35543 16 07 31.95 -13 22 29.3 18.7   704 – Lincoln Laboratory ETS, New Mexico MPS 134993
2005 05 12.36667 16 07 31.34 -13 22 25.3 19.0   704 – Lincoln Laboratory ETS, New Mexico MPS 134993
2005 05 16.28727 16 04 13.73 -12 54 50.8 18.9   704 – Lincoln Laboratory ETS, New Mexico MPS 135396
2005 05 16.29660 16 04 13.11 -12 54 48.1 19.3   704 – Lincoln Laboratory ETS, New Mexico MPS 135396
2005 05 16.30601 16 04 12.58 -12 54 42.5 19.2   704 – Lincoln Laboratory ETS, New Mexico MPS 135396
2005 05 16.31537 16 04 12.05 -12 54 39.3 18.9   704 – Lincoln Laboratory ETS, New Mexico MPS 135396
2005 05 16.32473 16 04 11.55 -12 54 36.1 18.9   704 – Lincoln Laboratory ETS, New Mexico MPS 135396
2005 05 16.35281 16 04 09.96 -12 54 23.7 17.2 R G96 – Mt. Lemmon Survey MPS 134993
2005 05 16.36223 16 04 09.42 -12 54 19.9 17.3 R G96 – Mt. Lemmon Survey MPS 134993
2005 05 16.37169 16 04 08.89 -12 54 15.8 18.0 R G96 – Mt. Lemmon Survey MPS 134993
2005 05 16.38109 16 04 08.36 -12 54 11.8 17.8 R G96 – Mt. Lemmon Survey MPS 134993
2005 06 02.25020 15 48 24.22 -11 09 35.0 18.3 V 703 – Catalina Sky Survey MPS 135621
2005 06 02.25661 15 48 23.86 -11 09 32.1 18.5 V 703 – Catalina Sky Survey MPS 135621
2005 06 02.26302 15 48 23.47 -11 09 30.4 18.3 V 703 – Catalina Sky Survey MPS 135621
2005 06 02.26943 15 48 23.04 -11 09 29.1 18.3 V 703 – Catalina Sky Survey MPS 135621
2005 06 02.62979 15 48 03.34 -11 07 29.0 19.6 R E12 – Siding Spring Survey MPS 135984
2005 06 02.63875 15 48 02.88 -11 07 26.7 19.1 R E12 – Siding Spring Survey MPS 135984
2005 06 02.64770 15 48 02.39 -11 07 22.8 18.4 R E12 – Siding Spring Survey MPS 135984
2005 06 02.65667 15 48 01.80 -11 07 20.8 18.9 R E12 – Siding Spring Survey MPS 135984
2005 06 05.28204 15 45 44.79 -10 55 20.0 19.3   704 – Lincoln Laboratory ETS, New Mexico MPS 135984
2005 06 05.29261 15 45 44.29 -10 55 18.1 19.1   704 – Lincoln Laboratory ETS, New Mexico MPS 135984
2005 06 05.30310 15 45 43.63 -10 55 16.6 19.2   704 – Lincoln Laboratory ETS, New Mexico MPS 135984
2005 06 05.31362 15 45 43.09 -10 55 12.3 19.2   704 – Lincoln Laboratory ETS, New Mexico MPS 135984
2005 06 09.21619 15 42 35.59 -10 39 52.8 19.0 V 691 – Steward Observatory, Kitt Peak-Spacewatch MPS 135984
2005 06 09.23356 15 42 34.74 -10 39 49.3 18.9 V 691 – Steward Observatory, Kitt Peak-Spacewatch MPS 135984
2005 06 09.25092 15 42 33.88 -10 39 45.7 18.9 V 691 – Steward Observatory, Kitt Peak-Spacewatch MPS 135984
2005 06 14.21988 15 39 10.99 -10 25 35.8 19.1 V 691 – Steward Observatory, Kitt Peak-Spacewatch MPS 136557
2005 06 14.23724 15 39 10.29 -10 25 33.5 19.2 V 691 – Steward Observatory, Kitt Peak-Spacewatch MPS 136557
2005 06 14.25461 15 39 09.59 -10 25 31.1 19.2 V 691 – Steward Observatory, Kitt Peak-Spacewatch MPS 136557
2005 06 28.19372 15 34 22.84 -10 19 43.7 18.8   644 – Palomar Mountain/NEAT MPS 137086
2005 06 28.19497 15 34 22.83 -10 19 43.6 18.9   644 – Palomar Mountain/NEAT MPS 137086
2005 06 28.21635 15 34 22.66 -10 19 45.3 18.8   644 – Palomar Mountain/NEAT MPS 137086
2005 06 28.21768 15 34 22.64 -10 19 45.4 19.0   644 – Palomar Mountain/NEAT MPS 137086
2005 06 28.23630 15 34 22.50 -10 19 47.0 19.1   644 – Palomar Mountain/NEAT MPS 137086
2005 06 28.23762 15 34 22.49 -10 19 47.1 19.1   644 – Palomar Mountain/NEAT MPS 137086
2005 07 05.18006 15 34 56.43 -10 35 00.8 19.2   644 – Palomar Mountain/NEAT MPS 137471
2005 07 05.20040 15 34 56.64 -10 35 04.4 19.0   644 – Palomar Mountain/NEAT MPS 137471
2005 07 05.22135 15 34 56.85 -10 35 08.3 19.4   644 – Palomar Mountain/NEAT MPS 137471
2005 08 05.16043 16 00 58.68 -13 27 04.5 20.1   644 – Palomar Mountain/NEAT MPS 139356
2005 08 05.18185 16 01 00.43 -13 27 14.2 19.8   644 – Palomar Mountain/NEAT MPS 139356
2005 08 05.20351 16 01 02.18 -13 27 23.5 20.5   644 – Palomar Mountain/NEAT MPS 139356
2008 02 02.52272 14 13 32.55 -13 10 57.7 21.0 V G96 – Mt. Lemmon Survey MPS 236244
2008 02 02.53325 14 13 33.24 -13 11 00.1 22.1 V G96 – Mt. Lemmon Survey MPS 236244
2008 02 02.53993 14 13 33.70 -13 11 02.0 21.6 V G96 – Mt. Lemmon Survey MPS 236244
2008 02 02.54652 14 13 34.10 -13 11 03.8 21.4 V G96 – Mt. Lemmon Survey MPS 236244
2008 04 06.34746 14 39 28.72 -12 11 06.8 20.0 V 691 – Steward Observatory, Kitt Peak-Spacewatch MPS 245744
2008 04 06.36261 14 39 28.17 -12 11 00.7 20.0 V 691 – Steward Observatory, Kitt Peak-Spacewatch MPS 245744
2008 04 06.37775 14 39 27.61 -12 10 54.5 20.0 V 691 – Steward Observatory, Kitt Peak-Spacewatch MPS 245744
2008 04 14.30991 14 34 00.81 -11 12 10.4 19.2   704 – Lincoln Laboratory ETS, New Mexico MPS 246746
2008 04 14.31215 14 34 00.67 -11 12 10.5 19.4 V 691 – Steward Observatory, Kitt Peak-Spacewatch MPS 246746
2008 04 14.32103 14 34 00.21 -11 12 04.9 19.8   704 – Lincoln Laboratory ETS, New Mexico MPS 246746
2008 04 14.32976 14 33 59.77 -11 12 02.2 19.3 V 691 – Steward Observatory, Kitt Peak-Spacewatch MPS 246746
2008 04 14.33208 14 33 59.65 -11 12 00.6 19.5   704 – Lincoln Laboratory ETS, New Mexico MPS 246746
2008 04 14.34736 14 33 58.87 -11 11 53.9 19.4 V 691 – Steward Observatory, Kitt Peak-Spacewatch MPS 246746
2008 04 27.30912 14 22 02.46 -09 21 32.8 18.8 V G96 – Mt. Lemmon Survey MPS 248125
